Location: Drocourt
(49.0571°N, 1.7669°E)
Time: 02:05:06
(UTC+00:00)

Transit 4A - Pass Details

Date: 17 April 2024
Orbit: 871 x 971 km, 66.8° (Epoch: 19 May)

Event Time Altitude Azimuth Distance (km) Brightness Sun altitude
Rises 16:26:41 0° 282° (WNW) 3,506 12.1 22.1°
Reaches altitude 10° 16:30:12 10° 302° (WNW) 2,552 11.1 21.6°
Maximum altitude 16:33:53 17° 342° (NNW) 2,101 10.0 21.0°
Drops below altitude 10° 16:37:33 10° 21° (NNE) 2,534 10.0 20.4°
Sets 16:41:02 0° 42° (NE) 3,470 10.5 19.8°
